Location: Forst
(46.9333°N, 15.4333°E)
Time: 06:39:37
(UTC+00:00)

USA 267 - Pass Details

Date: 01 December 2020
Orbit: 1100 x 1107 km, 123.0° (Epoch: 06 January)

Event Time Altitude Azimuth Distance (km) Brightness Sun altitude
Exits shadow 19:21:29 36° 280° (W) 1,678 4.5 -41.9°
Drops below altitude 10° 19:25:24 10° 301° (WNW) 2,963 6.1 -42.5°
Sets 19:27:58 0° 306° (NW) 3,924 6.9 -42.9°
